, AK

(GMT )
Eureka

Weather History for PAZK - July, 2013

Change the Weather History Date:

Friday, July 5, 2013

  Actual Average Record
Temperature  
Mean Temperature 49 °F -  
Max Temperature 57 °F 58 °F 71 °F (2014)
Min Temperature 41 °F 42 °F 35 °F (2012)
Degree Days  
Heating Degree Days 16    
Moisture  
Dew Point 37 °F    
Average Humidity 68    
Maximum Humidity 93    
Minimum Humidity 44    
Precipitation  
Precipitation 0.00 in - - ()
Sea Level Pressure  
Sea Level Pressure 30.03 in    
Wind  
Wind Speed 4 mph (ENE)    
Max Wind Speed 10 mph    
Max Gust Speed -    
Visibility 10 miles    
Events      
Averages and records for this station are not official NWS values.
T = Trace of Precipitation, MM = Missing Value Source: NWS Daily Summary

Daily Weather History Graph

Daily Weather History Graph

Search for Another Location

Airport or City:

Trip Planner

Search our weather history database for the weather conditions in past years. The results will help you decide how hot, cold, wet, or windy it might be!

Date:

Astronomy

Jul. 05, 2013 Rise Set
Actual Time 4:13 AM AKDT 11:32 PM AKDT
Civil Twilight 2:25 AM AKDT 1:21 AM AKDT
Nautical Twilight Sun does not rise Sun does not rise
Astronomical Twilight Sun does not rise Sun does not rise
Moon 2:48 AM AKDT (7/5) 9:08 PM AKDT (7/5)
Length of Visible Light 22h 55m
Length of Day
19h 19m
Waning Crescent, 5% of the Moon is Illuminated
Jul 5
Waning Crescent
Jul 7
New
Jul 15
First Quarter
Jul 22
Full
Jul 29
Last Quarter

Hourly Weather History & Observations

Time (AKDT) Temp. Windchill Dew Point Humidity Pressure Visibility Wind Dir Wind Speed Gust Speed Precip Events Conditions
12:16 AM 44.6 °F 43.1 °F 35.6 °F 71% 30.03 in 10.0 mi West 3.5 mph - N/A   Overcast
12:36 AM 44.6 °F 42.2 °F 35.6 °F 71% 30.04 in 10.0 mi West 4.6 mph - N/A   Overcast
12:56 AM 42.8 °F 40.1 °F 35.6 °F 76% 30.04 in 10.0 mi West 4.6 mph - N/A   Overcast
1:16 AM 42.8 °F 40.1 °F 37.4 °F 81% 30.04 in 10.0 mi West 4.6 mph - N/A   Overcast
1:36 AM 42.8 °F 39.3 °F 37.4 °F 81% 30.04 in 10.0 mi West 5.8 mph - N/A   Overcast
1:56 AM 42.8 °F 39.3 °F 37.4 °F 81% 30.04 in 10.0 mi West 5.8 mph - N/A   Overcast
2:16 AM 42.8 °F 40.1 °F 37.4 °F 81% 30.05 in 10.0 mi WSW 4.6 mph - N/A   Overcast
2:36 AM 42.8 °F 39.3 °F 37.4 °F 81% 30.05 in 10.0 mi West 5.8 mph - N/A   Overcast
2:56 AM 42.8 °F 38.6 °F 37.4 °F 81% 30.05 in 10.0 mi West 6.9 mph - N/A   Overcast
3:16 AM 42.8 °F - 37.4 °F 81% 30.05 in 10.0 mi Calm Calm - N/A   Overcast
3:36 AM 42.8 °F - 37.4 °F 81% 30.05 in 10.0 mi Calm Calm - N/A   Overcast
3:56 AM 42.8 °F - 37.4 °F 81% 30.05 in 10.0 mi Calm Calm - N/A   Overcast
4:16 AM 42.8 °F 40.1 °F 37.4 °F 81% 30.05 in 10.0 mi NE 4.6 mph - N/A   Overcast
4:36 AM 41.0 °F 38.0 °F 37.4 °F 87% 30.06 in 10.0 mi NE 4.6 mph - N/A   Overcast
4:56 AM 42.8 °F 41.1 °F 39.2 °F 87% 30.05 in 10.0 mi East 3.5 mph - N/A   Overcast
5:16 AM 41.0 °F 39.0 °F 39.2 °F 93% 30.05 in 10.0 mi ESE 3.5 mph - N/A   Overcast
5:36 AM 41.0 °F - 39.2 °F 93% 30.05 in 10.0 mi Calm Calm - N/A   Overcast
5:56 AM 41.0 °F - 39.2 °F 93% 30.05 in 10.0 mi Calm Calm - N/A   Overcast
6:16 AM 41.0 °F - 39.2 °F 93% 30.05 in 10.0 mi Calm Calm - N/A   Overcast
6:36 AM 42.8 °F - 39.2 °F 87% 30.05 in 10.0 mi Calm Calm - N/A   Overcast
6:56 AM 42.8 °F - 39.2 °F 87% 30.04 in 10.0 mi Calm Calm - N/A   Overcast
7:16 AM 42.8 °F - 39.2 °F 87% 30.04 in 10.0 mi Calm Calm - N/A   Overcast
7:36 AM 42.8 °F 41.1 °F 39.2 °F 87% 30.04 in 10.0 mi West 3.5 mph - N/A   Overcast
7:56 AM 42.8 °F - 39.2 °F 87% 30.04 in 10.0 mi Calm Calm - N/A   Overcast
8:16 AM 42.8 °F - 39.2 °F 87% 30.04 in 10.0 mi Calm Calm - N/A   Overcast
8:36 AM 42.8 °F - 39.2 °F 87% 30.04 in 10.0 mi Calm Calm - N/A   Overcast
8:56 AM 44.6 °F 42.2 °F 41.0 °F 87% 30.04 in 10.0 mi ESE 4.6 mph - N/A   Overcast
9:16 AM 44.6 °F 40.7 °F 42.8 °F 93% 30.04 in 10.0 mi East 6.9 mph - N/A   Overcast
9:36 AM 46.4 °F 45.2 °F 41.0 °F 81% 30.04 in 10.0 mi East 3.5 mph - N/A   Overcast
9:56 AM 48.2 °F - 39.2 °F 71% 30.04 in 10.0 mi NE 3.5 mph - N/A   Overcast
10:16 AM 48.2 °F - 39.2 °F 71% 30.05 in 10.0 mi NE 3.5 mph - N/A   Overcast
10:36 AM 46.4 °F 45.2 °F 39.2 °F 76% 30.05 in 10.0 mi NNE 3.5 mph - N/A   Overcast
10:56 AM 48.2 °F - 37.4 °F 66% 30.05 in 10.0 mi Calm Calm - N/A   Overcast
11:16 AM 50.0 °F - 39.2 °F 66% 30.04 in 10.0 mi North 3.5 mph - N/A   Overcast
11:36 AM 51.8 °F - 39.2 °F 62% 30.04 in 10.0 mi Calm Calm - N/A   Overcast
11:56 AM 51.8 °F - 37.4 °F 58% 30.04 in 10.0 mi Calm Calm - N/A   Overcast
12:16 PM 50.0 °F - 39.2 °F 66% 30.03 in 10.0 mi North 6.9 mph - N/A   Overcast
12:36 PM 51.8 °F - 39.2 °F 62% 30.03 in 10.0 mi NE 8.1 mph - N/A   Overcast
12:56 PM 51.8 °F - 37.4 °F 58% 30.03 in 10.0 mi ENE 5.8 mph - N/A   Overcast
1:16 PM 51.8 °F - 37.4 °F 58% 30.03 in 10.0 mi North 3.5 mph - N/A   Overcast
1:36 PM 53.6 °F - 35.6 °F 51% 30.03 in 10.0 mi Calm Calm - N/A   Mostly Cloudy
1:56 PM 55.4 °F - 39.2 °F 54% 30.03 in 10.0 mi ESE 4.6 mph - N/A   Mostly Cloudy
2:16 PM 53.6 °F - 37.4 °F 54% 30.03 in 10.0 mi ENE 4.6 mph - N/A   Mostly Cloudy
2:36 PM 53.6 °F - 37.4 °F 54% 30.03 in 10.0 mi ENE 6.9 mph - N/A   Mostly Cloudy
2:56 PM 53.6 °F - 37.4 °F 54% 30.03 in 10.0 mi NE 8.1 mph - N/A   Overcast
3:16 PM 55.4 °F - 39.2 °F 54% 30.03 in 10.0 mi NE 5.8 mph - N/A   Mostly Cloudy
3:36 PM 55.4 °F - 35.6 °F 47% 30.02 in 10.0 mi NE 8.1 mph - N/A   Mostly Cloudy
3:56 PM 53.6 °F - 35.6 °F 51% 30.01 in 10.0 mi NE 8.1 mph - N/A   Mostly Cloudy
4:16 PM 55.4 °F - 35.6 °F 47% 30.01 in 10.0 mi East 9.2 mph - N/A   Mostly Cloudy
4:36 PM 55.4 °F - 33.8 °F 44% 30.01 in 10.0 mi NE 5.8 mph - N/A   Overcast
4:56 PM 57.2 °F - 37.4 °F 48% 30.01 in 10.0 mi NE 4.6 mph - N/A   Overcast
5:16 PM 55.4 °F - 35.6 °F 47% 30.00 in 10.0 mi East 5.8 mph - N/A   Overcast
5:36 PM 55.4 °F - 35.6 °F 47% 30.00 in 10.0 mi East 5.8 mph - N/A   Mostly Cloudy
5:56 PM 55.4 °F - 35.6 °F 47% 30.00 in 10.0 mi ENE 4.6 mph - N/A   Overcast
6:16 PM 55.4 °F - 35.6 °F 47% 30.00 in 10.0 mi ESE 3.5 mph - N/A   Overcast
6:36 PM 55.4 °F - 35.6 °F 47% 29.99 in 10.0 mi East 5.8 mph - N/A   Overcast
6:56 PM 55.4 °F - 35.6 °F 47% 29.99 in 10.0 mi SE 3.5 mph - N/A   Overcast
7:16 PM 55.4 °F - 35.6 °F 47% 29.99 in 10.0 mi East 6.9 mph - N/A   Overcast
7:36 PM 55.4 °F - 33.8 °F 44% 29.99 in 10.0 mi East 9.2 mph - N/A   Overcast
7:56 PM 53.6 °F - 33.8 °F 47% 29.99 in 10.0 mi East 9.2 mph - N/A   Overcast
8:16 PM 53.6 °F - 33.8 °F 47% 29.99 in 10.0 mi East 6.9 mph - N/A   Overcast
8:36 PM 53.6 °F - 35.6 °F 51% 29.99 in 10.0 mi East 8.1 mph - N/A   Overcast
8:56 PM 51.8 °F - 35.6 °F 54% 29.99 in 8.0 mi Calm Calm - N/A   Overcast
9:16 PM 51.8 °F - 37.4 °F 58% 29.99 in 10.0 mi WSW 4.6 mph - N/A   Overcast
9:36 PM 50.0 °F - 39.2 °F 66% 29.99 in 10.0 mi SW 5.8 mph - N/A   Overcast
9:56 PM 48.2 °F - 37.4 °F 66% 29.99 in 10.0 mi SW 8.1 mph - N/A   Overcast
10:16 PM 48.2 °F - 35.6 °F 62% 30.00 in 10.0 mi WSW 9.2 mph - N/A   Overcast
10:36 PM 48.2 °F - 37.4 °F 66% 30.00 in 10.0 mi SW 6.9 mph - N/A   Overcast
10:56 PM 46.4 °F 41.5 °F 37.4 °F 71% 30.00 in 10.0 mi WSW 10.4 mph - N/A   Overcast
11:16 PM 46.4 °F 43.5 °F 37.4 °F 71% 30.00 in 10.0 mi WSW 5.8 mph - N/A   Overcast
11:36 PM 44.6 °F 40.2 °F 37.4 °F 76% 30.01 in 10.0 mi SW 8.1 mph - N/A   Overcast
11:56 PM 44.6 °F 40.2 °F 37.4 °F 76% 30.01 in 10.0 mi WSW 8.1 mph - N/A   Overcast